User: anonymous   Login
Location: Mentone
(34.5413°N, 85.5351°W)
Time: 13:44:53
(UTC-06:00)
Language:

Cosmos 1703 - Orbit

View from above orbital plane
View from above orbital plane
View from above satellite
View from above satellite

Ground track
Ground track

The orbit data is extracted from the following two-line orbital elements,

1 16262U 85108A   17057.50947720  .00001854  00000-0  11167-3 0  9990
2 16262  82.4818 358.6246 0009741 302.9057  57.1234 15.10201123702198
Epoch (UTC): 26 February 2017 12:13:38
Eccentricity: 0.0009741
inclination: 82.4818°
perigee height: 529 km
apogee height: 542 km
right ascension of ascending node: 358.6246°
argument of perigee: 302.9057°
revolutions per day: 15.10201123
mean anomaly at epoch: 57.1234°
orbit number at epoch: 70219

The dashed part of the orbit path shows where the satellite is in the earth's shadow,  

DLR